Regional Weather Roundup
Issued by NWS

Home | Current Version | Previous Version | Text Only | Print | Product List | Glossary Off
Versions: 1 2 3 4 5 6 7 8 9 10 11 12 13 14 15 16 17 18 19 20 21 22 23 24 25 26 27 28 29 30 31 32 33 34 35 36 37 38 39 40 41 42 43 44 45 46 47 48 49 50

000
ASUS43 KBIS 261002
RWRND

NORTH DAKOTA REGIONAL WEATHER ROUNDUP
NATIONAL WEATHER SERVICE BISMARCK ND
500 AM CDT WED APR 26 2017

NOTE: "FAIR" INDICATES FEW OR NO CLOUDS BELOW 12,000 FEET WITH NO
SIGNIFICANT WEATHER AND/OR OBSTRUCTIONS TO VISIBILITY.


NDZ001>003-009>011-017-261100-
NORTHWEST NORTH DAKOTA

CITY           SKY/WX    TMP DP  RH WIND       PRES   REMARKS
WILLISTON      FAIR      25  21  85 N6        29.97S WCI  18
MINOT          FAIR      27  21  78 N10       29.94S WCI  17
MINOT AFB      CLOUDY    27  20  73 N10       29.94S WCI  17
$$

NDZ018>021-031>035-040>046-261100-
SOUTHWEST NORTH DAKOTA

CITY           SKY/WX    TMP DP  RH WIND       PRES   REMARKS
BISMARCK       FAIR      33  24  69 N15       29.87F
DICKINSON      CLOUDY    30  24  78 N6        29.88S
GARRISON         N/A     28  22  78 N7        29.91S
HETTINGER ARPT CLOUDY    30  26  85 N8        29.88S
$$

NDZ004>008-012>016-024-026-027-054-261100-
NORTHEAST NORTH DAKOTA

CITY           SKY/WX    TMP DP  RH WIND       PRES   REMARKS
GRAND FORKS    CLOUDY    32  26  78 NE20G30   29.84S
GRND FRKS AFB  CLOUDY    30  24  76 NE18G25   29.84F WCI  18
DEVILS LAKE    CLOUDY    28  23  81 NE17G24   29.88S WCI  16
$$

NDZ022-023-025-028>030-036>039-047>053-261100-
SOUTHEAST NORTH DAKOTA

CITY           SKY/WX    TMP DP  RH WIND       PRES   REMARKS
FARGO          MIX PCPN  31  28  89 N18       29.76R WCI  19
JAMESTOWN      CLOUDY    29  26  89 N17       29.80F WCI  17
$$




USA.gov is the U.S. government's official web portal to all federal, state and local government web resources and services.